Regional Weather Roundup
Issued by NWS Lake Charles, LA

Home | Current Version | Previous Version | Text Only | Print | Product List | Glossary On
Versions: 1 2 3 4 5 6 7 8 9 10 11 12 13 14 15 16 17 18 19 20 21 22 23 24 25 26 27 28 29 30 31 32 33 34 35 36 37 38 39 40 41 42 43 44 45 46 47 48 49 50
939
ASUS44 KLCH 281610
RWRLCH
REGIONAL WEATHER ROUNDUP
NATIONAL WEATHER SERVICE LAKE CHARLES LA
1100 AM CDT THU JUL 28 2016

Note: "fair" indicates few or no clouds below 12,000 feet with no
significant weather and/or obstructions to visibility.


ACROSS SOUTHEAST TEXAS

CITY           SKY/WX    TMP DP  RH WIND       PRES   REMARKS
BEAUMONT       CLOUDY    86  78  77 SW9       30.02R
BEAUMONT CITY  FAIR      87  77  72 SW10      30.03S
ORANGE         CLOUDY    85  77  75 S7        30.04S
JASPER           N/A     87  75  68 SW9       30.04F
$$

ACROSS CENTRAL LOUISIANA

CITY           SKY/WX    TMP DP  RH WIND       PRES   REMARKS
LEESVILLE      MOSUNNY   87  77  72 SW9       30.02F
FULLERTON      PTSUNNY   88  77  69 VRB5      30.00S HX 100
ALEXANDRIA INT CLOUDY    84  78  82 SW10      30.01S
ESLER FIELD    CLOUDY    87  79  76 W12       30.02F HX 101
DERIDDER       PTSUNNY   88  77  70 S13       30.04F HX 100
OAKDALE        CLOUDY    86  79  79 SW6       30.03S
OPELOUSAS      PTSUNNY   85  78  78 S9        30.04S
$$

ACROSS SOUTHWEST AND SOUTH CENTRAL LOUISIANA

CITY           SKY/WX    TMP DP  RH WIND       PRES   REMARKS
SULPHUR        CLOUDY    86  76  71 SW5       30.04S
LAKE CHARLES   CLOUDY    85  78  80 SW6       30.03S
CHENNAULT INT  PTSUNNY   81  73  78 CALM      30.04R
CAMERON PHI    SUNNY     86  73  66 VRB6      30.03R
DEQUINCY       LGT RAIN  84  78  84 S6        30.03F
JENNINGS       FAIR      84  79  84 SW7       30.04S
LAFAYETTE      PTSUNNY   88  77  69 SW8       30.05S HX 100
NEW IBERIA     MOSUNNY   88  78  72 S10       30.05S HX 101
ABBEVILLE      PTSUNNY   87  80  78 SW7       30.05S HX 103
PATTERSON      PTSUNNY   87  79  76 S9        30.06S HX 101
SALT POINT       N/A     89  78  70 VRB6      30.04R HX 103
$$

SELECTED SITES ACROSS THE REGION

CITY           SKY/WX    TMP DP  RH WIND       PRES   REMARKS
HOUSTON BUSH   PTSUNNY   89  76  65 SW8       30.01F HX 100
HOUSTON HOBBY  CLOUDY    90  76  63 S10       30.00F HX 101
GALVESTON      PTSUNNY   88  79  74 S12       30.03R HX 103
COLLEGE STAT   MOSUNNY   86  77  74 SW12      30.01F
CONROE         MOSUNNY   88  76  67 W8        30.02S
HUNTSVILLE     MOSUNNY   87  74  64 SW10      30.03S
LUFKIN         CLOUDY    86  75  69 SW10      30.02S
SHREVEPORT     CLOUDY    81  77  88 SW7       30.01S
MONROE         TSTM      74  74 100 SW10      30.06S FOG
NATCHEZ MS     CLOUDY    79  72  78 N5        30.06R
BATON ROUGE    CLOUDY    86  76  71 SW7       30.05S
N.O. INTL ARPT MOSUNNY   90  76  63 SW9       30.06R HX 101
SLIDELL        PTSUNNY   87  77  72 SW8       30.06S
$$

MARINE REPORTS

STATION/POSITION TIME  SKY/WX   TEMP    WIND        PRES    VSBY
                                AIR SEA DIR/SP/G
                 (UTC)          (F)     (DEG/KT/KT) (MB)    (MI)
BUOY 30 S HIGH I 1550            86 86  200/  8/ 10 1016.5S
WVE H/P(F/S)=  3/ 6

SEA RIM ST PARK  1600            85     210/  8/ 10 1017.3R
PORT ARTHUR      1500               88  180/  4/  7 1016.7F
SABINE PASS N    1500            84 87  190/  7/ 13 1018.0R
TEXAS POINT      NOT AVBL
CALCASIEU PASS   1500            85 85  250/  8/ 12 1016.0R
LK CHARLES BEACH 1500            85 86              1017.3R
MARSH ISLAND     1500            88                   N/A
FRESH WATER LOCK 1500            85 83  180/ 10/ 12 1018.0R
AMERADA PASS     1500            86 84  170/  2/  5 1017.4R
$$




USA.gov is the U.S. government's official web portal to all federal, state and local government web resources and services.